Showing default

YUNHAI 3, 54235

Orbit data source: Space-Track

YUNHAI 3, 54235 is a payload satellite owned by SAST (CN) in SSO that was launched on Fri, 11 Nov 2022 UTC via a CHANG ZHENG 6A launch vehicle from the Taiyaun Space Center, China (TSC). Payload-class satellites include a variety of spacecraft equipped with specific instruments for various scientific and technological missions. These include communications satellites like Starlink; space stations such as the ISS; scientific satellites like the Hubble; Earth observation satellites from companies like Planet Labs, Umbra, and HawkEye 360; GPS; miniature CubeSats for education and research; and military/defense satellites.

Loading next visibility...
Identifier
54235, 2022-151A
Orbit
SSO
Last TLE update
5 hours ago
Origin
Manufacturer
SAST
Mission
Operational Defense Weather
Bus & Motor
SAST-3000, Unknown motor
Mass
~1,500 kg wet, ~1,300 kg dry
Launch date (UTC)
2022-11-11 (3 years ago)
Launch vehicle
CHANG ZHENG 6A
Launch site
Taiyaun Space Center, China (TSC)
Object type
Payload
Rocket body
Debris
Shape & HBR
Box + 2 Pan, 4 m
Radar Cross Section
5.141 m², Large (>1 m²)

Expand to show TLE details & history

TLE from 5 hours ago
0 YUNHAI 3
1 54235U 22151A   25133.53048841  .00000011  00000-0  29133-4 0  9991
2 54235  98.8185 141.5698 0001902 113.1287 247.0086 14.13427894129045
Epoch: 2025-05-13T12:43Z
Definitive object data (Epoch: 2025-05-13T12:43:54.198Z)
Latitude
-0.00004°
Longitude
79.06609°
Altitude
851.104 km
Speed
7.427 km/s
True Right ascension
09h 26m 16s
True Declination
0° 00' 00"
Sunlit
Object was in daylight at TLE epoch
Visualization TLE readout
Latitude
32.82257°
Longitude
73.56918°
Altitude
851.637 km
Speed
7.43 km/s
Apparent Right ascension
11h 24m 10s
Apparent Declination
-1° 10' 05"
Sunlit
Object is in daylight
Visualization observer readout
Local Sidereal Time
02:25:35
Azimuth
58.541° ENE
Elevation
-33.501°
Doppler factor
1
Orbital elements
Apogee altitude
846.212 km
Perigee altitude
843.464 km
Semi-major axis
7,222.975 km
Eccentricity
0.0001902
Inclination
98.8185°
RAAN
141.5698°
Arg. of periapsis
113.1287°
True anomaly
246.98854°
Mean anomaly
247.0086°
Eccentric anomaly
246.99857°
Mean motion
3.53565 °/min
BSTAR
0.000029133
Orbital period
101.82 mins
Loading maneuver chart data...
Loading SW <> Apogee altitude chart data...
Loading historical data...
Loading historical data...
Loading historical data...
Loading historical data...
Loading historical data...
Loading historical data...
Loading historical data...

YUNHAI 3 Visibility forecast

Observer location: undefined°, undefined°

Span
Click to sort rows by Start time (UTC) header in descending order
Start Az.
Max El. time (UTC)
Max El. Az.
Max El.
End time (UTC)
End Az.
7 mins2025-05-13 23:05:04.953Z102.181° ESE2025-05-13 23:09:04.953Z54.85° ENE16.917°2025-05-13 23:12:04.953Z21.319° NNE
8 mins2025-05-14 00:45:04.953Z182.211° SSW2025-05-14 00:49:04.953Z281.79° WNW41.171°2025-05-14 00:53:04.953Z337.257° NNW
9 mins2025-05-14 13:07:04.953Z26.553° NE2025-05-14 13:11:04.953Z120.601° SE40.641°2025-05-14 13:16:04.953Z181.578° SSW
5 mins2025-05-14 14:49:04.953Z321.433° NNW2025-05-14 14:51:04.953Z294.505° NW17.603°2025-05-14 14:54:04.953Z259.072° W
|